Date String (YYYY-MM-DD hh:mm:ss) UTC,Instrument flags,absolute air pressure of the measurement (hPa),sample flow rate (lpm),inlet stack bypass flow (lpm),air temperature of the measurement (°C),ambient temperature measured by the external sensor (°C),aerosol sample conditioner tube jacket temperature (°C),OPC LED temperature (°C),internal box temperature (°C),relative humidity of the measurement (%),span deviation,mass concentration of particles derived from Lorenz-Mie calculation of OPC scattering (μg/m³),mass concentration of particles derived from Lorenz-Mie calculation of OPC scattering (μg/m³),mass concentration of particles derived from Lorenz-Mie calculation of OPC scattering (μg/m³)
DateTimeUTC,F1_M11,P_M11,Q1_M11,Q2_M11,T1_M11,T2_M11,T3_M11,T4_M11,T5_M11,U1_M11,ZSPAN_M11,X0_M11,X2_M11,X1_M11
2023-10-24 13:00:00,SystemResetWarning,0825.7,4.99,000.00,028.4,026.8,000.0,036.9,029.9,13.3,0000.0,0019.33,0006.02,0004.04
2023-10-24 13:01:00,SystemResetWarning,0825.7,5.00,000.00,028.4,026.8,000.0,036.9,029.9,13.7,0000.0,0019.85,0006.01,0004.02
2023-10-24 13:02:00,SystemResetWarning,0825.7,5.00,000.00,028.4,026.8,000.0,036.9,029.9,13.9,0000.0,0020.32,0005.99,0004.03
2023-10-24 13:03:00,SystemResetWarning,0825.8,5.00,000.00,028.3,026.8,000.0,036.9,029.9,14.5,0000.0,0019.29,0005.89,0004.02
2023-10-24 13:04:00,SystemResetWarning,0825.8,5.01,000.00,028.3,026.8,000.0,036.9,029.9,14.7,0000.0,0020.48,0005.85,0004.02
2023-10-24 13:05:00,SystemResetWarning,0825.8,5.01,000.00,028.3,026.7,000.0,036.9,029.9,14.9,0000.0,0022.20,0005.88,0004.02
2023-10-24 13:06:00,SystemResetWarning,0825.7,5.00,000.00,028.3,026.7,000.0,036.8,029.9,15.0,0000.0,0021.19,0005.84,0004.02
2023-10-24 13:07:00,SystemResetWarning,0825.8,5.00,000.00,028.3,026.7,000.0,036.8,029.9,15.0,0000.0,0021.57,0005.86,0004.02
2023-10-24 13:08:00,SystemResetWarning,0825.9,5.00,000.00,028.3,026.7,000.0,036.8,029.8,14.9,0000.0,0021.26,0005.82,0004.02
2023-10-24 13:09:00,SystemResetWarning,0825.9,5.00,000.00,028.3,026.7,000.0,036.8,029.8,15.0,0000.0,0021.05,0005.77,0004.02
2023-10-24 13:10:00,SystemResetWarning,0825.9,5.00,000.00,028.2,026.7,000.0,036.8,029.8,15.0,0000.0,0021.17,0005.73,0004.01
2023-10-24 13:11:00,SystemResetWarning,0825.9,5.00,000.00,028.2,026.6,000.0,036.8,029.8,15.1,0000.0,0020.19,0005.61,0003.99
2023-10-24 13:12:00,SystemResetWarning,0825.9,5.00,000.00,028.2,026.6,000.0,036.8,029.7,15.1,0000.0,0019.97,0005.58,0004.00
2023-10-24 13:13:00,SystemResetWarning,0825.9,5.00,000.00,028.2,026.6,000.0,036.8,029.7,15.1,0000.0,0018.86,0005.56,0004.00
2023-10-24 13:14:00,SystemResetWarning,0825.9,5.00,000.00,028.2,026.6,000.0,036.8,029.7,15.1,0000.0,0018.63,0005.63,0004.01
2023-10-24 13:15:00,SystemResetWarning,0825.9,5.00,000.00,028.2,026.6,000.0,036.8,029.7,15.1,0000.0,0017.84,0005.61,0003.99
2023-10-24 13:16:00,SystemResetWarning,0825.9,5.00,000.00,028.2,026.5,000.0,036.8,029.7,15.1,0000.0,0017.15,0005.52,0003.98
2023-10-24 13:17:00,SystemResetWarning,0825.9,5.00,000.00,028.1,026.5,000.0,036.7,029.6,15.2,0000.0,0017.58,0005.44,0003.96
2023-10-24 13:18:00,SystemResetWarning,0825.9,4.99,000.00,028.1,026.5,000.0,036.7,029.6,15.2,0000.0,0016.70,0005.36,0003.95
2023-10-24 13:19:00,SystemResetWarning,0825.9,5.00,000.00,028.1,026.5,000.0,036.7,029.6,15.1,0000.0,0017.16,0005.28,0003.94
2023-10-24 13:20:00,SystemResetWarning,0825.9,5.00,000.00,028.1,026.4,000.0,036.7,029.5,15.4,0000.0,0017.33,0005.23,0003.92
2023-10-24 13:21:00,SystemResetWarning,0825.9,5.00,000.00,028.0,026.4,000.0,036.7,029.5,15.4,0000.0,0017.24,0005.17,0003.90
2023-10-24 13:22:00,SystemResetWarning,0825.9,5.00,000.00,028.0,026.3,000.0,036.7,029.5,15.3,0000.0,0017.16,0005.18,0003.89
2023-10-24 13:23:00,SystemResetWarning,0825.8,5.00,000.00,028.0,026.3,000.0,036.7,029.4,15.4,0000.0,0018.13,0005.19,0003.87
2023-10-24 13:24:00,SystemResetWarning,0825.8,5.00,000.00,027.9,026.3,000.0,036.6,029.4,15.4,0000.0,0018.50,0005.14,0003.86
2023-10-24 13:25:00,SystemResetWarning,0825.9,5.00,000.00,027.9,026.2,000.0,036.6,029.4,15.6,0000.0,0018.30,0005.08,0003.84
2023-10-24 13:26:00,SystemResetWarning,0825.9,5.00,000.00,027.9,026.2,000.0,036.6,029.4,15.8,0000.0,0018.47,0005.08,0003.84
2023-10-24 13:27:00,SystemResetWarning,0825.9,5.00,000.00,027.9,026.2,000.0,036.6,029.4,15.9,0000.0,0017.93,0005.15,0003.83
2023-10-24 13:28:00,SystemResetWarning,0825.9,5.00,000.00,027.9,026.2,000.0,036.5,029.4,15.8,0000.0,0016.66,0005.18,0003.82
2023-10-24 13:29:00,SystemResetWarning,0825.9,5.00,000.00,027.9,026.2,000.0,036.5,029.4,15.5,0000.0,0016.43,0005.12,0003.80
2023-10-24 13:30:00,SystemResetWarning,0825.9,5.00,000.00,027.8,026.3,000.0,036.5,029.4,15.1,0000.0,0016.04,0005.14,0003.78
2023-10-24 13:31:00,SystemResetWarning,0826.0,4.99,000.00,027.8,026.3,000.0,036.5,029.4,15.1,0000.0,0015.58,0005.13,0003.77
2023-10-24 13:32:00,SystemResetWarning,0825.9,5.00,000.00,027.8,026.2,000.0,036.5,029.4,15.0,0000.0,0015.43,0005.10,0003.75
2023-10-24 13:33:00,SystemResetWarning,0825.9,4.99,000.00,027.8,026.2,000.0,036.4,029.4,15.0,0000.0,0015.01,0005.04,0003.73
2023-10-24 13:34:00,SystemResetWarning,0825.9,5.00,000.00,027.8,026.3,000.0,036.4,029.4,15.2,0000.0,0013.47,0004.94,0003.71
2023-10-24 13:35:00,SystemResetWarning,0825.9,5.00,000.00,027.8,026.3,000.0,036.4,029.4,15.4,0000.0,0012.75,0004.96,0003.69
2023-10-24 13:36:00,SystemResetWarning,0825.9,5.00,000.00,027.8,026.2,000.0,036.4,029.3,15.4,0000.0,0013.07,0004.96,0003.66
2023-10-24 13:37:00,SystemResetWarning,0825.9,4.99,000.00,027.8,026.2,000.0,036.4,029.3,15.4,0000.0,0012.89,0004.91,0003.65
2023-10-24 13:38:00,SystemResetWarning,0825.9,5.00,000.00,027.8,026.2,000.0,036.4,029.3,15.5,0000.0,0012.30,0004.79,0003.63
2023-10-24 13:39:00,SystemResetWarning,0825.9,5.00,000.00,027.8,026.2,000.0,036.4,029.3,15.5,0000.0,0011.86,0004.72,0003.64
2023-10-24 13:40:00,SystemResetWarning,0825.9,5.00,000.00,027.8,026.2,000.0,036.4,029.3,15.5,0000.0,0012.60,0004.75,0003.66
2023-10-24 13:41:00,SystemResetWarning,0825.9,5.00,000.00,027.7,026.2,000.0,036.4,029.3,15.6,0000.0,0011.85,0004.75,0003.68
2023-10-24 13:42:00,SystemResetWarning,0825.9,5.00,000.00,027.7,026.2,000.0,036.4,029.3,16.3,0000.0,0011.86,0004.73,0003.69
2023-10-24 13:43:00,SystemResetWarning,0825.9,5.00,000.00,027.7,026.2,000.0,036.3,029.2,16.5,0000.0,0011.72,0004.81,0003.71
2023-10-24 13:44:00,SystemResetWarning,0825.9,5.00,000.00,027.7,026.1,000.0,036.3,029.2,16.6,0000.0,0011.80,0004.83,0003.74
2023-10-24 13:45:00,SystemResetWarning,0825.9,5.00,000.00,027.7,026.1,000.0,036.3,029.2,17.2,0000.0,0011.96,0004.85,0003.75
2023-10-24 13:46:00,SystemResetWarning,0826.0,5.01,000.00,027.7,026.1,000.0,036.3,029.2,17.9,0000.0,0012.30,0004.85,0003.77
2023-10-24 13:47:00,SystemResetWarning,0826.0,5.00,000.00,027.7,026.1,000.0,036.3,029.2,18.2,0000.0,0012.85,0004.88,0003.79
2023-10-24 13:48:00,SystemResetWarning,0826.0,5.00,000.00,027.7,026.1,000.0,036.3,029.2,18.2,0000.0,0013.51,0004.88,0003.80
2023-10-24 13:49:00,SystemResetWarning,0826.0,5.00,000.00,027.6,026.1,000.0,036.2,029.2,18.0,0000.0,0013.70,0004.94,0003.81
2023-10-24 13:50:00,SystemResetWarning,0826.0,5.00,000.00,027.6,026.1,000.0,036.2,029.2,18.2,0000.0,0013.99,0005.01,0003.82
2023-10-24 13:51:00,SystemResetWarning,0826.0,5.00,000.00,027.6,026.1,000.0,036.2,029.2,18.6,0000.0,0014.41,0005.02,0003.81
2023-10-24 13:52:00,SystemResetWarning,0826.0,5.00,000.00,027.6,026.1,000.0,036.2,029.2,18.5,0000.0,0014.74,0005.05,0003.81
2023-10-24 13:53:00,SystemResetWarning,0826.0,5.00,000.00,027.6,026.1,000.0,036.2,029.2,18.2,0000.0,0016.11,0005.08,0003.81
2023-10-24 13:54:00,SystemResetWarning,0826.0,5.00,000.00,027.6,026.1,000.0,036.2,029.2,18.6,0000.0,0016.13,0005.08,0003.80
2023-10-24 13:55:00,SystemResetWarning,0826.0,5.00,000.00,027.6,026.1,000.0,036.2,029.2,19.0,0000.0,0016.43,0005.12,0003.79
2023-10-24 13:56:00,SystemResetWarning,0826.0,5.00,000.00,027.6,026.1,000.0,036.2,029.2,19.0,0000.0,0016.84,0005.21,0003.81
2023-10-24 13:57:00,SystemResetWarning,0826.1,5.00,000.00,027.6,026.1,000.0,036.2,029.2,19.5,0000.0,0016.85,0005.24,0003.82
2023-10-24 13:58:00,SystemResetWarning,0826.1,5.00,000.00,027.6,026.1,000.0,036.2,029.1,19.8,0000.0,0016.56,0005.19,0003.82
2023-10-24 13:59:00,SystemResetWarning,0826.2,5.00,000.00,027.6,026.1,000.0,036.1,029.1,19.7,0000.0,0016.95,0005.22,0003.83
